IRIDIUM 168 (43924 NORAD) Tracking and Keplerian Element Data

This shows tracking and keplerian element data for the satellite.

Feedback or suggestion? Click here.




ElementValue
Catalog43924
NameIRIDIUM 168
Epoch Orbit423
Epoch Day40.92539665
Epoch Year2019
RAAN35.311
Inclination86.3955
Eccentricity0.0001723
Argument of Perigee82.2108
Mean Anonmoly277.9283
Mean Motion14.34217332
Decay Rate1.5E-07
L11 43924U 19002C 19040.92539665 .00000015 00000-0 -17777-5 0 9994
L22 43924 86.3955 35.3110 0001723 82.2108 277.9283 14.34217332 4234

Live tracking and technical data element details for IRIDIUM 168 (NORAD 43924). IRIDIUM 168 can be tracked NOW for your location showing map with azimuth and elevation plus other details from your city location.

Track the satellite on the map from your city or location and see movement details for azimuth, elevation, latitude, longitude, range, height, and movement on the map or in text.







IsCatalogInMostPopularTable: catalog: 43924, numindb: 126
Update: records affected: 1



GetName: 43924 IRIDIUM 168

Hit Count: updated at: Sat, 20 Jul 2019 23:00:19 GMT